STARLINK-1279, 45360

Orbit data source: Space-Track

STARLINK-1279, 45360 is a payload satellite owned by SpaceX/Seattle (US) in LEO that was launched on Wed, 18 Mar 2020 UTC via an FALCON 9 launch vehicle from the Air Force Eastern Test Range (AFETR). Payload-class satellites include a variety of spacecraft equipped with specific instruments for various scientific and technological missions. These include communications satellites like Starlink; space stations such as the ISS; scientific satellites like the Hubble; Earth observation satellites from companies like Planet Labs, Umbra, and HawkEye 360; GPS; miniature CubeSats for education and research; and military/defense satellites.

Loading next visibility...
Identifier
45360, 2020-019A
Orbit
LEO
Country
Flag of USUS
Related business
Manufacturer
SpaceX/Seattle
Mission
Partially operational Commercial Communications
Bus & Motor
STARLINK, Unknown motor
Mass
260 kg wet, ~248 kg dry
Launch date (UTC)
2020-03-18 (6 years ago)
Launch vehicle
FALCON 9
Launch site
Air Force Eastern Test Range (AFETR)
Object type
Payload
Rocket body
Debris
Shape & HBR
Box + 1 Pan, 10.1 m
Radar Cross Section
13.562 m², Large (>1 m²)

Expand to show TLE details & history
Last TLE update: 12 hours ago

TLE from 12 hours ago
0 STARLINK-1279
1 45360U 20019A   26035.31864176  .00097570  00000-0  16689-2 0  9992
2 45360  53.0454 259.8000 0007698 108.4862 251.6983 15.50470432325481
Epoch: 2026-02-04T07:38Z
TLE epoch observation values (Epoch: 2026-02-04T07:38:50.648Z)
Latitude
-0.00002°
Longitude
10.60202°
Altitude
417.893 km
Speed
7.661 km/s
True Right ascension
17h 19m 11s
True Declination
0° 00' 00"
Sunlit
Object was in daylight at epoch
Visualization orbit readout
Latitude
Unknown
Longitude
Unknown
Altitude
Unknown
Speed
Unknown
Apparent Right ascension
Unknown
Apparent Declination
Unknown
Sunlit
N/A
Visualization observer readout
Local Sidereal Time
21:22:49
Azimuth
Unknown
Elevation
Unknown
Doppler factor
Unknown
Orbital elements
Apogee altitude
420.859 km
Perigee altitude
410.399 km
Semi-major axis
6,793.766 km
Eccentricity
0.00077
Inclination
53.0454°
RAAN
259.8°
Arg. of periapsis
108.4862°
True anomaly
251.61457°
Mean anomaly
251.6983°
Eccentric anomaly
251.65643°
Mean motion
3.87594 °/min
Orbital period
92.88 mins
BSTAR
0.0016689
Loading maneuver chart data...
Computing Atmospheric mass density...
Loading historical data...
Loading historical data...
Loading historical data...
Loading historical data...
Loading historical data...
Loading historical data...
Loading historical data...

Documentation

Showing up to 5 results
|